Clinton-Sherman, OK

7:27 AM CST on November 23, 2017 (GMT -0600)
Clinton-Sherman

Weather History for KCSM - February, 2013

Change the Weather History Date:

Friday, February 22, 2013

  Actual Average Record
Temperature  
Mean Temperature 26 °F -  
Max Temperature 34 °F 52 °F 84 °F (2017)
Min Temperature 18 °F 31 °F 18 °F (2013)
Degree Days  
Heating Degree Days 39    
Moisture  
Dew Point 17 °F    
Average Humidity 70    
Maximum Humidity 78    
Minimum Humidity 59    
Precipitation  
Precipitation 0.00 in - - ()
Sea Level Pressure  
Sea Level Pressure 30.13 in    
Wind  
Wind Speed 11 mph (North)    
Max Wind Speed 20 mph    
Max Gust Speed -    
Visibility 10 miles    
Events      
Averages and records for this station are not official NWS values.
T = Trace of Precipitation, MM = Missing Value Source: NWS Daily Summary

Daily Weather History Graph

Daily Weather History Graph

Search for Another Location

Airport or City:

Trip Planner

Search our weather history database for the weather conditions in past years. The results will help you decide how hot, cold, wet, or windy it might be!

Date:

Astronomy

Feb. 22, 2013 Rise Set
Actual Time 7:14 AM CST 6:26 PM CST
Civil Twilight 6:49 AM CST 6:51 PM CST
Nautical Twilight 6:19 AM CST 7:21 PM CST
Astronomical Twilight 5:50 AM CST 7:50 PM CST
Moon 3:43 PM CST (2/22) 4:56 AM CST (2/22)
Length of Visible Light 12h 02m
Length of Day
11h 11m
Waxing Gibbous, 90% of the Moon is Illuminated
Feb 22
Waxing Gibbous
Feb 25
Full
Mar 4
Last Quarter
Mar 11
New
Mar 19
First Quarter

Hourly Weather History & Observations

Time (CST) Temp. Windchill Dew Point Humidity Pressure Visibility Wind Dir Wind Speed Gust Speed Precip Events Conditions
12:53 AM 21.0 °F 8.1 °F 14.0 °F 74% 30.06 in 10.0 mi NW 13.8 mph - N/A   Clear
2:53 AM 19.9 °F 5.7 °F 12.9 °F 74% 30.05 in 10.0 mi NNW 16.1 mph - N/A   Clear
3:53 AM 19.9 °F 5.2 °F 12.9 °F 74% 30.04 in 10.0 mi NNW 17.3 mph - N/A   Clear
4:53 AM 19.9 °F 4.3 °F 12.9 °F 74% 30.05 in 10.0 mi NNW 19.6 mph - N/A   Clear
5:53 AM 19.0 °F 5.6 °F 12.0 °F 74% 30.09 in 10.0 mi NNW 13.8 mph - N/A   Clear
6:53 AM 18.0 °F 6.9 °F 12.0 °F 78% 30.12 in 10.0 mi NNW 9.2 mph - N/A   Clear
7:53 AM 19.0 °F 13.9 °F 12.0 °F 74% 30.16 in 10.0 mi NW 3.5 mph - N/A   Clear
8:53 AM 21.9 °F 10.4 °F 12.9 °F 68% 30.17 in 10.0 mi NNW 11.5 mph - N/A   Clear
9:53 AM 25.0 °F 14.8 °F 15.1 °F 66% 30.19 in 10.0 mi North 10.4 mph - N/A   Clear
10:53 AM 26.1 °F 19.4 °F 16.0 °F 66% 30.20 in 10.0 mi North 5.8 mph - N/A   Clear
11:53 AM 28.9 °F 21.1 °F 19.0 °F 67% 30.19 in 10.0 mi North 8.1 mph - N/A   Clear
12:53 PM 30.0 °F 25.2 °F 19.0 °F 64% 30.17 in 10.0 mi North 4.6 mph - N/A   Clear
1:53 PM 32.0 °F 27.5 °F 21.0 °F 64% 30.13 in 10.0 mi Variable 4.6 mph - N/A   Clear
2:53 PM 34.0 °F 26.6 °F 21.9 °F 61% 30.12 in 10.0 mi NNW 9.2 mph - N/A   Clear
3:53 PM 34.0 °F 26.0 °F 21.9 °F 61% 30.11 in 10.0 mi North 10.4 mph - N/A   Clear
4:53 PM 34.0 °F 26.6 °F 21.0 °F 59% 30.11 in 10.0 mi North 9.2 mph - N/A   Clear
5:53 PM 33.1 °F 26.1 °F 21.0 °F 61% 30.11 in 10.0 mi NNW 8.1 mph - N/A   Clear
6:53 PM 28.9 °F 22.8 °F 21.0 °F 72% 30.13 in 10.0 mi NNW 5.8 mph - N/A   Clear
7:53 PM 27.0 °F 21.6 °F 21.0 °F 78% 30.16 in 10.0 mi NNW 4.6 mph - N/A   Clear
8:53 PM 27.0 °F 23.0 °F 21.0 °F 78% 30.17 in 10.0 mi NNE 3.5 mph - N/A   Clear
9:53 PM 26.1 °F 21.9 °F 19.9 °F 78% 30.17 in 10.0 mi ENE 3.5 mph - N/A   Clear
10:53 PM 26.1 °F 21.9 °F 19.9 °F 78% 30.16 in 10.0 mi East 3.5 mph - N/A   Clear
11:53 PM 26.1 °F 21.9 °F 19.9 °F 78% 30.14 in 10.0 mi East 3.5 mph - N/A   Clear